Weather History for Grand Canyon, AZ

Change the Weather History Date:

Tuesday, April 10, 2012

  Actual Average Record
Temperature  
Mean Temperature 48 °F -  
Max Temperature 71 °F 54 °F 72 °F (2014)
Min Temperature 25 °F 22 °F 3 °F (2011)
Degree Days  
Heating Degree Days 17    
Moisture  
Dew Point 14 °F    
Average Humidity 30    
Maximum Humidity 66    
Minimum Humidity 11    
Precipitation  
Precipitation 0.00 in - - ()
Sea Level Pressure  
Sea Level Pressure 29.94 in    
Wind  
Wind Speed 5 mph (South)    
Max Wind Speed 20 mph    
Max Gust Speed 32 mph    
Visibility 10 miles    
Events      
Averages and records for this station are not official NWS values.
T = Trace of Precipitation, MM = Missing Value Source: NWS Daily Summary

Daily Weather History Graph

Daily Weather History Graph

Search for Another Location

Airport:

Trip Planner

Search our weather history database for the weather conditions in past years. The results will help you decide how hot, cold, wet, or windy it might be!

Date:

Astronomy

Apr. 10, 2012 Rise Set
Actual Time 6:01 AM MST 6:58 PM MST
Civil Twilight 5:35 AM MST 7:24 PM MST
Nautical Twilight 5:04 AM MST 7:55 PM MST
Astronomical Twilight 4:32 AM MST 8:27 PM MST
Moon 11:50 PM MST (4/10) 8:57 AM MST (4/10)
Length of Visible Light 13h 49m
Length of Day
12h 56m
Waning Gibbous, 78% of the Moon is Illuminated
Apr 10
Waning Gibbous
Apr 13
Last Quarter
Apr 21
New
Apr 29
First Quarter
May 5
Full

Hourly Weather History & Observations

Time (MST) Temp. Windchill Dew Point Humidity Pressure Visibility Wind Dir Wind Speed Gust Speed Precip Events Conditions
12:54 AM 28.0 °F - 12.9 °F 53% 30.03 in 10.0 mi Calm Calm - N/A   Clear
1:54 AM 26.1 °F - 14.0 °F 60% 30.02 in 10.0 mi Calm Calm - N/A   Clear
2:54 AM 26.1 °F 21.9 °F 14.0 °F 60% 30.01 in 10.0 mi East 3.5 mph - N/A   Clear
3:54 AM 26.1 °F - 14.0 °F 60% 30.01 in 10.0 mi Calm Calm - N/A   Clear
4:54 AM 25.0 °F - 15.1 °F 66% 30.01 in 10.0 mi Calm Calm - N/A   Clear
5:54 AM 25.0 °F - 15.1 °F 66% 30.02 in 10.0 mi Calm Calm - N/A   Clear
6:54 AM 30.0 °F - 17.1 °F 59% 30.04 in 10.0 mi Calm Calm - N/A   Clear
7:54 AM 48.0 °F - 21.0 °F 34% 30.02 in 10.0 mi Calm Calm - N/A   Clear
8:54 AM 62.1 °F - 10.9 °F 13% 29.99 in 10.0 mi South 10.4 mph - N/A   Clear
9:54 AM 64.9 °F - 12.9 °F 13% 29.99 in 10.0 mi South 11.5 mph 21.9 mph N/A   Clear
10:54 AM 66.0 °F - 12.0 °F 12% 29.99 in 10.0 mi SSW 10.4 mph 23.0 mph N/A   Clear
11:54 AM 68.0 °F - 15.1 °F 13% 29.97 in 10.0 mi South 15.0 mph 24.2 mph N/A   Clear
12:54 PM 70.0 °F - 14.0 °F 12% 29.94 in 10.0 mi SSW 10.4 mph 23.0 mph N/A   Clear
1:54 PM 71.1 °F - 12.9 °F 11% 29.92 in 10.0 mi South 17.3 mph 27.6 mph N/A   Clear
2:54 PM 69.1 °F - 10.9 °F 11% 29.91 in 10.0 mi South 17.3 mph 32.2 mph N/A   Clear
3:54 PM 70.0 °F - 12.9 °F 11% 29.90 in 10.0 mi South 19.6 mph 25.3 mph N/A   Clear
4:54 PM 69.1 °F - 12.0 °F 11% 29.89 in 10.0 mi South 15.0 mph 21.9 mph N/A   Clear
5:54 PM 66.0 °F - 12.9 °F 13% 29.89 in 10.0 mi SW 15.0 mph 25.3 mph N/A   Clear
6:54 PM 60.1 °F - 14.0 °F 16% 29.90 in 10.0 mi SSW 8.1 mph - N/A   Clear
7:54 PM 57.0 °F - 14.0 °F 18% 29.84 in 10.0 mi South 9.2 mph - N/A   Clear
8:54 PM 53.1 °F - 15.1 °F 22% 29.82 in 10.0 mi SSE 4.6 mph - N/A   Clear
9:54 PM 50.0 °F - 16.0 °F 26% 29.80 in 10.0 mi SSW 6.9 mph - N/A   Clear
10:54 PM 50.0 °F - 15.1 °F 25% 29.80 in 10.0 mi South 6.9 mph - N/A   Clear
11:54 PM 50.0 °F - 16.0 °F 26% 29.79 in 10.0 mi South 9.2 mph - N/A   Clear